STARLINK-11330, 62011

Orbit data source: Space-Track

STARLINK-11330, 62011 is a payload satellite owned by SpaceX/Seattle (US) in LEO that was launched on Mon, 18 Nov 2024 UTC via an FALCON 9 launch vehicle from the Air Force Western Test Range (AFWTR). Payload-class satellites include a variety of spacecraft equipped with specific instruments for various scientific and technological missions. These include communications satellites like Starlink; space stations such as the ISS; scientific satellites like the Hubble; Earth observation satellites from companies like Planet Labs, Umbra, and HawkEye 360; GPS; miniature CubeSats for education and research; and military/defense satellites.

Loading next visibility...
Identifier
62011, 2024-213D
Orbit
LEO
Country
Flag of USUS
Related business
Manufacturer
SpaceX/Seattle
Mission
Operational Commercial Communications
Bus & Motor
STARLINK V2MD, Unknown motor
Mass
960 kg wet, ~910 kg dry
Launch date (UTC)
2024-11-18 (1 year ago)
Launch vehicle
FALCON 9
Launch site
Air Force Western Test Range (AFWTR)
Object type
Payload
Rocket body
Debris
Shape & HBR
Box + 2 Pan, 18.1 m
Radar Cross Section
36.964 m², Large (>1 m²)

Expand to show TLE details & history
Last TLE update: 7 hours ago

TLE from 7 hours ago
0 STARLINK-11330
1 62011U 24213D   26123.51874613  .00132740  00000-0  10793-2 0  9990
2 62011  53.1566 131.2007 0001467  96.6497 263.4688 15.69792762 83520
Epoch: 2026-05-03T12:26Z
TLE epoch observation values (Epoch: 2026-05-03T12:26:59.665Z)
Latitude
-0.00002°
Longitude
83.03094°
Altitude
360.517 km
Speed
7.694 km/s
True Right ascension
08h 44m 48s
True Declination
0° 00' 00"
Sunlit
Object was in daylight at epoch
Visualization orbit readout
Latitude
Unknown
Longitude
Unknown
Altitude
Unknown
Speed
Unknown
Apparent Right ascension
Unknown
Apparent Declination
Unknown
Sunlit
N/A
Visualization observer readout
Local Sidereal Time
03:36:05
Azimuth
Unknown
Elevation
Unknown
Doppler factor
Unknown
Orbital elements
Apogee altitude
360.74 km
Perigee altitude
358.763 km
Semi-major axis
6,737.888 km
Eccentricity
0.00015
Inclination
53.1566°
RAAN
131.2007°
Arg. of periapsis
96.6497°
True anomaly
263.4521°
Mean anomaly
263.4688°
Eccentric anomaly
263.46045°
Mean motion
3.92426 °/min
Orbital period
91.74 mins
BSTAR
0.0010793
Loading maneuver chart data...
Computing Atmospheric mass density...
Loading historical data...
Loading historical data...
Loading historical data...
Loading historical data...
Loading historical data...
Loading historical data...
Loading historical data...

Documentation

Showing up to 5 results
|